Home   Weather   47°15'N, 122°25'W   Past weeks
Flag for USA

Past Weather in 47°15'N, 122°25'W, USA — Yesterday and Last 2 Weeks

Now
48 °F

Passing clouds.


Feels Like: 47 °F
Forecast: 57 / 44 °F
Wind: 3 mph from Southwest

Location: Tacoma Narrows Airport

Current Time: Oct 13, 2019 at 11:31:20 pm

Latest Report: Oct 13, 2019 at 10:53 pm


Visibility: 10 mi

Pressure: 30.04 "Hg

Humidity: 89%

Dew Point: 45 °F

Location of 47°15'N, 122°25'WLocation

Past Weather in 47°15'N, 122°25'W — Graph

°F

47°15'N, 122°25'W Temperature Yesterday

Maximum temperature yesterday: 57 °F (at 2:53 pm)
Minimum temperature yesterday: 42 °F (at 2:53 am)
Average temperature yesterday: 49 °F

High & Low Weather Summary for the Past Weeks

 TemperatureHumidityPressure
High62 °F (Oct 5, 2:53 pm)100% (Oct 6, 5:53 am)30.47 "Hg (Oct 6, 5:53 am)
Low35 °F (Oct 10, 4:53 am)35% (Oct 11, 3:53 pm)29.84 "Hg (Oct 7, 9:53 pm)
Average50 °F72%30.12 "Hg
* Reported Sep 28 9:53 pm — Oct 13 9:53 pm, 47°15'N, 122°25'W. Weather by CustomWeather, © 2019

Note: Actual official high and low records may vary slightly from our data, if they occured in-between our weather recording intervals... More about our weather records

Advertising

47°15'N, 122°25'W Weather History for the Previous 24 Hours

Scroll right to see more
 ConditionsComfort  
Time TempWeatherWind HumidityBarometerVisibility
9:53 pm
Sun, Oct 13
50 °FPassing clouds.5 mph86%30.03 "Hg10 mi
9:12 pm51 °FOvercast.6 mph86%30.02 "Hg10 mi
8:53 pm51 °FMostly cloudy.6 mph89%30.01 "Hg10 mi
8:01 pm51 °FMostly cloudy.No wind89%30.00 "Hg10 mi
6:53 pm54 °FLight rain. Mostly cloudy.No wind67%29.98 "Hg10 mi
5:53 pm55 °FMostly cloudy.5 mph67%29.97 "Hg10 mi
4:53 pm55 °FScattered clouds.No wind69%29.98 "Hg10 mi
3:53 pm56 °FBroken clouds.6 mph70%29.97 "Hg10 mi
2:53 pm53 °FBroken clouds.5 mph77%29.97 "Hg10 mi
2:00 pm53 °FBroken clouds.3 mph80%29.97 "Hg10 mi
12:53 pm53 °FBroken clouds.5 mph80%29.97 "Hg10 mi
11:53 am53 °FBroken clouds.5 mph80%29.98 "Hg10 mi
10:53 am51 °FMostly cloudy.3 mph86%29.98 "Hg10 mi
10:32 am51 °FMore clouds than sun.No wind86%29.97 "Hg10 mi
9:53 am50 °FMostly cloudy.No wind86%29.96 "Hg10 mi
8:53 am49 °FOvercast.No wind93%29.96 "Hg10 mi
7:53 am47 °FOvercast.No wind97%29.96 "Hg10 mi
6:53 am48 °FOvercast.No wind89%29.95 "Hg10 mi
5:53 am48 °FLight rain. Overcast.No wind86%29.95 "Hg10 mi
4:53 am48 °FMostly cloudy.No wind86%29.94 "Hg10 mi
3:53 am48 °FOvercast.No wind89%29.93 "Hg10 mi
2:53 am49 °FOvercast.3 mph86%29.93 "Hg10 mi
1:53 am49 °FOvercast.5 mph86%29.95 "Hg10 mi
12:53 am48 °FOvercast.3 mph86%29.94 "Hg10 mi
11:53 pm
Sat, Oct 12
48 °FOvercast.3 mph86%29.94 "Hg10 mi
Weather by CustomWeather, © 2019

See weather overview